Date String (YYYY-MM-DD hh:mm:ss) UTC,Instrument flags,Ambient pressure (hPa),Sample flow (lpm),Bypass flow (lpm),Sample temperature (°C),Ambient temperature (°C),ASC tube jacket temperature (°C),LED temperature (°C),Box temperature (°C),Sample RH (%),Span deviation,Mass concentration (μg/m³),Mass concentration (μg/m³),Mass concentration (μg/m³)
DateTimeUTC,F1_M11,P_M11,Q1_M11,Q2_M11,T1_M11,T2_M11,T3_M11,T4_M11,T5_M11,U1_M11,ZSPAN_M11,X0_M11,X2_M11,X1_M11
2022-07-20 13:00:00,,0830.6,5.00,0.00,29.6,28.1,00.0,38.4,31.5,21.4,0000.0,0037.79,0009.45,0006.41
2022-07-20 13:01:00,,0830.5,5.01,0.00,29.7,28.2,00.0,38.5,31.5,21.7,0000.0,0033.31,0009.15,0006.41
2022-07-20 13:02:00,,0830.6,4.99,0.00,29.7,28.3,00.0,38.5,31.6,21.9,0000.0,0030.33,0008.95,0006.42
2022-07-20 13:03:00,,0830.6,5.01,0.00,29.7,28.4,00.0,38.5,31.6,21.6,0000.0,0028.59,0008.77,0006.43
2022-07-20 13:04:00,,0830.6,5.00,0.00,29.7,28.5,00.0,38.5,31.6,21.5,0001.2,0026.87,0008.63,0006.42
2022-07-20 13:05:00,,0830.6,5.00,0.00,29.7,28.6,00.0,38.5,31.7,21.4,0003.2,0024.82,0008.53,0006.43
2022-07-20 13:06:00,,0830.6,4.99,0.00,29.8,28.6,00.0,38.5,31.7,21.4,0003.1,0024.30,0008.41,0006.44
2022-07-20 13:07:00,,0830.6,5.01,0.00,29.8,28.7,00.0,38.5,31.8,21.1,0003.4,0023.34,0008.33,0006.44
2022-07-20 13:08:00,,0830.6,4.99,0.00,29.8,28.7,00.0,38.5,31.8,21.5,0003.3,0022.36,0008.29,0006.45
2022-07-20 13:09:00,,0830.6,4.99,0.00,29.8,28.8,00.0,38.6,31.8,21.4,0003.9,0022.00,0008.24,0006.46
2022-07-20 13:10:00,,0830.6,5.01,0.00,29.9,28.8,00.0,38.6,31.8,21.1,0003.7,0022.64,0008.17,0006.46
2022-07-20 13:11:00,,0830.6,5.00,0.00,29.9,28.9,00.0,38.6,31.9,21.2,0002.2,0024.17,0008.21,0006.45
2022-07-20 13:12:00,,0830.6,5.00,0.00,29.9,28.9,00.0,38.6,31.9,21.4,0000.0,0029.65,0008.59,0006.47
2022-07-20 13:13:00,,0830.6,5.01,0.00,30.0,28.9,00.0,38.6,31.9,21.5,0000.0,0032.26,0008.86,0006.48
2022-07-20 13:14:00,,0830.6,5.00,0.00,30.0,28.2,00.0,38.6,31.9,21.6,0000.0,0032.36,0008.92,0006.46
2022-07-20 13:15:00,,0830.6,4.99,0.00,29.9,27.5,00.0,38.5,31.7,21.6,0000.0,0033.50,0008.94,0006.45
2022-07-20 13:16:00,,0830.6,5.01,0.00,29.9,27.4,00.0,38.5,31.6,21.8,0000.0,0034.17,0008.97,0006.42
2022-07-20 13:17:00,,0830.6,5.00,0.00,29.8,27.4,00.0,38.5,31.5,21.9,0000.0,0034.72,0009.16,0006.41
2022-07-20 13:18:00,,0830.6,4.99,0.00,29.7,27.5,00.0,38.5,31.5,22.2,0000.0,0035.88,0009.41,0006.39
2022-07-20 13:19:00,,0830.5,5.00,0.00,29.7,27.7,00.0,38.5,31.5,22.3,0000.0,0036.38,0009.50,0006.36
2022-07-20 13:20:00,,0830.5,5.01,0.00,29.7,27.8,00.0,38.5,31.5,22.6,0000.0,0037.14,0009.55,0006.35
2022-07-20 13:21:00,,0830.5,5.00,0.00,29.7,28.0,00.0,38.5,31.5,22.4,0000.0,0035.72,0009.51,0006.34
2022-07-20 13:22:00,,0830.5,5.00,0.00,29.7,28.1,00.0,38.5,31.5,22.4,0001.1,0034.15,0009.42,0006.34
2022-07-20 13:23:00,,0830.5,5.00,0.00,29.7,28.2,00.0,38.5,31.6,22.4,0000.8,0030.03,0009.13,0006.32
2022-07-20 13:24:00,,0830.5,5.01,0.00,29.7,28.3,00.0,38.5,31.6,22.3,0000.3,0026.20,0008.73,0006.27
2022-07-20 13:25:00,,0830.6,4.99,0.00,29.7,28.4,00.0,38.5,31.7,22.1,0000.0,0025.40,0008.58,0006.26
2022-07-20 13:26:00,,0830.5,5.01,0.00,29.8,28.5,00.0,38.5,31.7,22.4,0000.0,0023.59,0008.42,0006.24
2022-07-20 13:27:00,,0830.5,5.00,0.00,29.8,28.6,00.0,38.5,31.8,22.5,0000.0,0021.56,0008.38,0006.25
2022-07-20 13:28:00,,0830.5,5.00,0.00,29.8,28.7,00.0,38.5,31.7,22.7,0000.0,0019.83,0008.22,0006.25
2022-07-20 13:29:00,,0830.5,5.01,0.00,29.8,28.7,00.0,38.6,31.8,22.0,0000.0,0018.21,0007.95,0006.26
2022-07-20 13:30:00,,0830.5,4.99,0.00,29.9,28.8,00.0,38.6,31.8,21.9,0000.0,0017.08,0007.83,0006.28
2022-07-20 13:31:00,,0830.5,4.99,0.00,29.9,28.9,00.0,38.6,31.9,22.0,0000.0,0015.82,0007.72,0006.27
2022-07-20 13:32:00,,0830.5,5.01,0.00,29.9,28.9,00.0,38.6,31.9,21.7,0000.0,0016.28,0007.71,0006.27
2022-07-20 13:33:00,,0830.5,4.99,0.00,30.0,28.9,00.0,38.7,31.9,21.5,0000.0,0016.12,0007.71,0006.27
2022-07-20 13:34:00,,0830.5,5.00,0.00,30.0,28.5,00.0,38.6,31.9,21.6,0000.0,0015.70,0007.68,0006.26
2022-07-20 13:35:00,,0830.5,5.01,0.00,29.9,27.7,00.0,38.6,31.8,21.7,0000.0,0015.43,0007.68,0006.27
2022-07-20 13:36:00,,0830.5,5.00,0.00,29.9,27.4,00.0,38.5,31.7,21.8,0000.0,0015.61,0007.68,0006.27
2022-07-20 13:37:00,,0830.5,5.00,0.00,29.8,27.4,00.0,38.5,31.6,21.7,0000.0,0016.37,0007.68,0006.27
2022-07-20 13:38:00,,0830.5,5.01,0.00,29.8,27.5,00.0,38.5,31.5,21.8,0000.0,0016.39,0007.68,0006.26
2022-07-20 13:39:00,,0830.5,5.00,0.00,29.7,27.7,00.0,38.5,31.5,22.0,0000.0,0016.42,0007.64,0006.26
2022-07-20 13:40:00,,0830.5,4.99,0.00,29.7,27.8,00.0,38.5,31.5,22.2,0000.0,0016.96,0007.63,0006.24
2022-07-20 13:41:00,,0830.5,5.00,0.00,29.7,28.0,00.0,38.5,31.5,22.3,0000.0,0018.39,0007.58,0006.22
2022-07-20 13:42:00,,0830.5,5.01,0.00,29.7,28.1,00.0,38.5,31.6,22.2,0000.0,0019.41,0007.58,0006.20
2022-07-20 13:43:00,,0830.5,4.99,0.00,29.7,28.2,00.0,38.5,31.6,22.1,0000.0,0019.48,0007.61,0006.18
2022-07-20 13:44:00,,0830.5,5.00,0.00,29.8,28.4,00.0,38.5,31.7,22.5,0000.0,0019.73,0007.59,0006.17
2022-07-20 13:45:00,,0830.5,5.00,0.00,29.8,28.5,00.0,38.5,31.7,22.6,0000.0,0020.32,0007.61,0006.18
2022-07-20 13:46:00,,0830.5,4.99,0.00,29.8,28.5,00.0,38.6,31.7,22.5,0000.0,0020.48,0007.69,0006.18
2022-07-20 13:47:00,,0830.5,5.01,0.00,29.8,28.6,00.0,38.6,31.7,23.0,0000.0,0020.49,0007.74,0006.20
2022-07-20 13:48:00,,0830.5,4.99,0.00,29.8,28.7,00.0,38.6,31.8,23.3,0000.0,0020.54,0007.82,0006.23
2022-07-20 13:49:00,,0830.5,5.01,0.00,29.9,28.8,00.0,38.6,31.8,23.3,0000.0,0021.54,0007.98,0006.29
2022-07-20 13:50:00,,0830.5,4.99,0.00,29.9,28.8,00.0,38.6,31.9,23.0,0000.0,0022.99,0008.09,0006.32
2022-07-20 13:51:00,,0830.5,5.01,0.00,29.9,28.9,00.0,38.6,31.9,23.3,0000.0,0022.87,0008.17,0006.34
2022-07-20 13:52:00,,0830.4,5.00,0.00,30.0,28.8,00.0,38.6,32.0,23.1,0000.0,0022.94,0008.31,0006.36
2022-07-20 13:53:00,,0830.4,5.01,0.00,30.0,28.2,00.0,38.6,31.9,23.1,0000.0,0024.58,0008.36,0006.38
2022-07-20 13:54:00,,0830.4,4.99,0.00,29.9,27.6,00.0,38.5,31.7,23.4,0000.0,0025.42,0008.41,0006.42
2022-07-20 13:55:00,,0830.4,5.00,0.00,29.9,27.5,00.0,38.5,31.7,23.8,0000.0,0025.37,0008.49,0006.46
2022-07-20 13:56:00,,0830.4,5.01,0.00,29.8,27.5,00.0,38.5,31.6,23.9,0002.0,0025.35,0008.54,0006.50
2022-07-20 13:57:00,,0830.4,5.01,0.00,29.8,27.6,00.0,38.5,31.5,23.9,0002.0,0025.77,0008.53,0006.51
2022-07-20 13:58:00,,0830.4,4.99,0.00,29.7,27.8,00.0,38.5,31.5,23.8,0001.2,0026.54,0008.58,0006.54
2022-07-20 13:59:00,,0830.4,4.99,0.00,29.7,27.9,00.0,38.5,31.6,23.7,0000.0,0026.30,0008.62,0006.56
